[[{"header":{"parameterUnit":"m.s-1","parameterCategory":1,"la1":30.2991,"la2":30.254,"lo1":-89.0895,"lo2":-89.0444,"dy":0.0017,"dx":0.0017,"nx":28,"ny":28,"refTime":"2025-01-31T09:00:00:Z","depth":0,"parameterNumber":2,"parameterNumberName":"U-component_of_WINDS"},"data":[0,0,0,0,0,0,0,0,0,0,0,0,0,0,0,0,0,0,0,0,0,0,0,0,0,0,0,0,0,0,0,0,0,0,0,0,0,0,0,0,0,0,0,0,0,0,0,0,0,0,0,0,0,0,0,0,0,0,-1.3254,-1.3254,0,-1.3283,-1.3283,-1.3284,-1.3283,-1.3282,-1.3282,-1.3282,-1.3309,-1.331,-1.3311,0,0,0,0,0,0,0,0,0,0,0,0,0,-1.3193,-1.3194,-1.3253,-1.3254,-1.3254,-1.3283,-1.3283,-1.3284,-1.3283,-1.3282,-1.3282,-1.3281,-1.3309,-1.331,-1.3311,0,0,0,0,0,0,0,0,0,0,0,0,0,-1.322,-1.3194,-1.3253,-1.3257,-1.3258,-1.3283,-1.3283,-1.3284,-1.3283,-1.3282,-1.3282,-1.3281,-1.3308,-1.331,-1.3311,-1.3333,0,0,-1.3316,-1.3317,0,0,0,0,0,0,0,0,-1.3219,-1.3223,-1.3256,-1.3257,-1.3258,-1.3279,-1.3272,-1.33,-1.3283,-1.3273,-1.3282,-1.3281,-1.3299,-1.3301,-1.3308,-1.3335,-1.3336,-1.3316,-1.3317,-1.3318,-1.3319,0,0,0,0,0,0,0,-1.3217,-1.3221,-1.3265,-1.3257,-1.3258,-1.3256,-1.326,-1.3277,-1.3289,-1.3274,-1.3274,-1.3278,-1.3299,-1.3307,-1.3309,-1.3336,-1.3316,-1.3318,-1.3319,-1.332,-1.3381,-1.3382,0,0,0,0,0,0,-1.3215,-1.322,-1.3264,-1.3266,-1.3237,-1.3258,-1.3262,-1.3273,-1.3289,-1.3291,-1.3278,-1.3278,-1.3304,-1.3307,-1.331,-1.3336,-1.3318,-1.332,-1.3321,-1.338,-1.3381,-1.3382,0,0,0,0,0,0,-1.3213,-1.3219,-1.3263,-1.3243,-1.3248,-1.326,-1.3272,-1.3273,-1.3281,-1.3292,-1.3294,-1.3284,-1.3304,-1.3307,-1.3327,-1.3337,-1.332,-1.3322,-1.338,-1.3381,-1.3382,-1.3389,0,0,0,0,0,0,-1.3212,-1.3218,-1.3228,-1.3243,-1.325,-1.3281,-1.3273,-1.3274,-1.3284,-1.3283,-1.3298,-1.33,-1.3304,-1.3325,-1.3329,-1.3339,-1.3323,-1.3379,-1.338,-1.3381,-1.3388,-1.339,-1.3392,0,0,0,0,0,-1.321,-1.3228,-1.3228,-1.3233,-1.3262,-1.3282,-1.3285,-1.329,-1.3285,-1.3294,-1.3301,-1.3299,-1.3335,-1.3327,-1.3332,-1.3342,-1.3378,-1.338,-1.3381,-1.3387,-1.3389,-1.3392,0,0,0,0,0,0,-1.3212,-1.323,-1.323,-1.3255,-1.3267,-1.3282,-1.3293,-1.3293,-1.3306,-1.3305,-1.331,-1.3313,-1.3333,-1.334,-1.333,-1.3364,-1.3356,-1.3358,-1.3359,-1.3361,-1.3363,-1.3361,-1.3325,0,0,0,0,0,-1.3216,-1.3232,-1.3246,-1.3266,-1.3272,-1.3282,-1.3291,-1.3294,-1.3306,-1.3311,-1.3319,-1.333,-1.3344,-1.3353,-1.3367,-1.3389,-1.3391,-1.3398,-1.34,-1.3402,-1.3403,-1.3415,-1.3417,-1.3387,-1.3387,-1.3387,0,0,-1.3223,-1.3235,-1.3244,-1.3267,-1.3277,-1.3292,-1.3286,-1.3302,-1.3313,-1.3313,-1.3332,-1.3339,-1.3352,-1.3373,-1.3382,-1.3379,-1.3413,-1.3404,-1.3405,-1.3406,-1.3416,-1.3419,-1.3422,-1.3388,-1.3388,-1.3387,0,0,-1.3244,-1.3255,-1.3272,-1.3282,-1.3298,-1.3304,-1.3308,-1.3322,-1.3327,-1.3347,-1.3347,-1.3359,-1.3383,-1.3392,-1.34,-1.3423,-1.3422,-1.3428,-1.3438,-1.3448,-1.3451,-1.3453,-1.346,-1.3463,-1.3429,-1.3429,-1.343,0,-1.3251,-1.3275,-1.3281,-1.3298,-1.3307,-1.3308,-1.3325,-1.3334,-1.3352,-1.3358,-1.3354,-1.3384,-1.3393,-1.3415,-1.3421,-1.3428,-1.3431,-1.3426,-1.345,-1.3452,-1.3454,-1.3461,-1.3464,-1.343,-1.343,-1.343,-1.343,0,-1.3282,-1.3298,-1.331,-1.3329,-1.3339,-1.3356,-1.3364,-1.3374,-1.3376,-1.3382,-1.3401,-1.3412,-1.3427,-1.3433,-1.3434,-1.3455,-1.3452,-1.3449,-1.3441,-1.3458,-1.3464,-1.3467,-1.3431,-1.3431,-1.343,-1.343,0,0,-1.3305,-1.3327,-1.3331,-1.3339,-1.3355,-1.3368,-1.3384,-1.3399,-1.3407,-1.342,-1.3432,-1.3453,-1.345,-1.3458,-1.3461,-1.3471,-1.3487,-1.3466,-1.3467,-1.3469,-1.351,-1.3511,-1.3514,-1.3487,-1.3488,-1.3488,-1.3508,0,-1.3326,-1.3356,-1.3362,-1.3387,-1.3402,-1.3403,-1.3417,-1.3428,-1.3434,-1.3446,-1.3453,-1.3467,-1.3462,-1.3467,-1.3477,-1.3483,-1.3495,-1.3482,-1.3498,-1.3498,-1.3493,-1.3518,-1.352,-1.3538,-1.3511,-1.3511,-1.3512,0,-1.3356,-1.337,-1.3397,-1.3411,-1.3417,-1.3429,-1.3444,-1.3456,-1.3468,-1.3472,-1.3481,-1.3483,-1.3498,-1.349,-1.3511,-1.3502,-1.3509,-1.3513,-1.3514,-1.3514,-1.3505,-1.3518,-1.3544,-1.3547,-1.3516,-1.3516,-1.3515,0,-1.3369,-1.3394,-1.3413,-1.342,-1.3437,-1.3446,-1.3453,-1.3465,-1.3473,-1.3486,-1.3491,-1.3505,-1.3512,-1.3522,-1.3527,-1.3521,-1.3547,-1.354,-1.3549,-1.3549,-1.3554,-1.3553,-1.358,-1.356,-1.356,-1.356,-1.356,0,-1.3392,-1.3408,-1.3419,-1.3431,-1.3448,-1.3455,-1.3472,-1.3479,-1.3489,-1.3501,-1.3503,-1.3514,-1.352,-1.3532,-1.3536,-1.3551,-1.3555,-1.3557,-1.3558,-1.3557,-1.3556,-1.356,-1.3559,-1.356,-1.356,-1.356,-1.356,0,-1.3409,-1.3417,-1.3438,-1.3452,-1.3456,-1.3469,-1.3481,-1.3491,-1.3497,-1.3513,-1.3516,-1.3525,-1.3539,-1.3545,-1.3562,-1.3565,-1.3583,-1.3583,-1.3579,-1.3579,-1.3588,-1.3586,-1.3617,-1.3621,-1.3599,-1.3599,-1.3599,0,-1.3423,-1.3435,-1.3451,-1.346,-1.3467,-1.3481,-1.3491,-1.3497,-1.3506,-1.352,-1.3529,-1.3543,-1.3555,-1.3576,-1.3584,-1.3596,-1.3596,-1.3606,-1.3598,-1.3596,-1.3595,-1.3594,-1.3595,-1.3607,-1.3608,-1.3608,-1.3608,0,-1.3446,-1.3449,-1.3463,-1.3478,-1.3489,-1.35,-1.3512,-1.3518,-1.3526,-1.3536,-1.3551,-1.356,-1.3577,-1.3591,-1.3604,-1.361,-1.361,-1.3611,-1.3613,-1.3612,-1.3608,-1.3609,-1.3582,-1.361,-1.361,-1.3609,-1.3609,-1.3609,-1.3461,-1.3472,-1.3485,-1.3499,-1.3509,-1.3519,-1.353,-1.3537,-1.355,-1.3565,-1.3568,-1.3583,-1.3594,-1.3611,-1.3618,-1.3629,-1.3627,-1.3631,-1.3632,-1.3632,-1.3632,-1.3608,-1.3632,-1.3632,-1.3632,-1.3632,-1.3632,0,-1.3483,-1.3492,-1.3505,-1.3521,-1.3533,-1.3533,-1.3545,-1.3554,-1.3568,-1.3578,-1.359,-1.3606,-1.3619,-1.3627,-1.364,-1.3647,-1.3648,-1.365,-1.3649,-1.3651,-1.3635,-1.363,-1.365,-1.365,-1.365,-1.365,-1.365,-1.365,-1.3496,-1.3514,-1.3519,-1.3541,-1.3549,-1.3565,-1.3572,-1.3581,-1.3589,-1.3608,-1.3619,-1.3624,-1.3634,-1.3647,-1.3659,-1.3661,-1.3665,-1.3668,-1.3669,-1.3654,-1.3652,-1.365,-1.3646,-1.3669,-1.3669,-1.3685,-1.3685,-1.3685]},{"header":{"parameterUnit":"m.s-1","parameterCategory":1,"la1":30.2991,"la2":30.254,"lo1":-89.0895,"lo2":-89.0444,"dy":0.0017,"dx":0.0017,"nx":28,"ny":28,"refTime":"2025-01-31T09:00:00:Z","depth":0,"parameterNumber":3,"parameterNumberName":"V-component_of_WINDS"},"data":[0,0,0,0,0,0,0,0,0,0,0,0,0,0,0,0,0,0,0,0,0,0,0,0,0,0,0,0,0,0,0,0,0,0,0,0,0,0,0,0,0,0,0,0,0,0,0,0,0,0,0,0,0,0,0,0,0,0,5.8355,5.8355,0,5.8442,5.8443,5.8444,5.843,5.8428,5.8427,5.8425,5.8509,5.8512,5.8516,0,0,0,0,0,0,0,0,0,0,0,0,0,5.8169,5.8172,5.8354,5.8356,5.8357,5.8442,5.8443,5.8445,5.843,5.8428,5.8426,5.8424,5.8507,5.8512,5.8516,0,0,0,0,0,0,0,0,0,0,0,0,0,5.8252,5.8174,5.8354,5.836,5.8361,5.8442,5.8443,5.8445,5.843,5.8428,5.8426,5.8424,5.8506,5.8511,5.8517,5.8595,0,0,5.8533,5.8536,0,0,0,0,0,0,0,0,5.8247,5.8259,5.8358,5.836,5.8361,5.8423,5.8409,5.8495,5.8431,5.8404,5.8425,5.8422,5.8481,5.8489,5.851,5.8599,5.8603,5.8534,5.8537,5.8539,5.8541,0,0,0,0,0,0,0,5.8242,5.8255,5.8389,5.8359,5.8361,5.8356,5.8366,5.8425,5.8454,5.8406,5.8405,5.8416,5.8482,5.8505,5.8512,5.8604,5.8534,5.8538,5.8542,5.8544,5.8765,5.8768,0,0,0,0,0,0,5.8235,5.825,5.8386,5.8392,5.8298,5.8361,5.8372,5.8405,5.8453,5.8459,5.8418,5.8415,5.8497,5.8505,5.8515,5.8613,5.8539,5.8544,5.8548,5.8763,5.8766,5.8769,0,0,0,0,0,0,5.8231,5.8247,5.8383,5.8321,5.8338,5.8367,5.8405,5.8408,5.8431,5.8463,5.8467,5.8436,5.8495,5.8507,5.8577,5.8615,5.8547,5.8552,5.876,5.8764,5.8767,5.8808,0,0,0,0,0,0,5.8226,5.8246,5.8278,5.8322,5.8341,5.8445,5.8407,5.8411,5.8441,5.8438,5.8481,5.8486,5.8494,5.8569,5.8582,5.8622,5.8556,5.8756,5.8761,5.8766,5.8804,5.8813,5.8821,0,0,0,0,0,5.8219,5.8283,5.8279,5.8296,5.8381,5.8447,5.8458,5.8468,5.8444,5.8476,5.8496,5.8484,5.8609,5.8576,5.8591,5.8633,5.8754,5.876,5.8766,5.88,5.8811,5.8821,0,0,0,0,0,0,5.824,5.8289,5.8285,5.8366,5.8403,5.8444,5.8484,5.848,5.8522,5.8518,5.8526,5.8536,5.8607,5.8626,5.8589,5.8713,5.8678,5.8687,5.8698,5.871,5.8718,5.8713,5.8561,0,0,0,0,0,5.8254,5.8305,5.8345,5.8412,5.8431,5.8455,5.8483,5.8489,5.8526,5.8541,5.8566,5.8602,5.8649,5.868,5.8725,5.8805,5.8815,5.8842,5.885,5.8857,5.8866,5.8913,5.8926,5.8788,5.8788,5.8788,0,0,5.8283,5.8317,5.8348,5.8417,5.8446,5.8498,5.8468,5.8523,5.8562,5.8549,5.8618,5.8637,5.8677,5.8754,5.8789,5.8772,5.8906,5.8865,5.887,5.8875,5.892,5.8933,5.8945,5.8792,5.8791,5.8791,0,0,5.8364,5.8394,5.8455,5.8486,5.8532,5.8547,5.8562,5.8605,5.8619,5.8688,5.8681,5.8725,5.8806,5.8836,5.8861,5.8956,5.8947,5.8969,5.9016,5.9062,5.9073,5.9082,5.9119,5.9131,5.8977,5.8977,5.8978,0,5.8395,5.8475,5.8486,5.8544,5.8575,5.8569,5.863,5.8658,5.8715,5.8737,5.8717,5.8821,5.8846,5.8931,5.8955,5.8975,5.8992,5.8966,5.907,5.908,5.909,5.9124,5.9137,5.898,5.898,5.898,5.8979,0,5.8511,5.8566,5.861,5.8669,5.8704,5.8763,5.8783,5.8817,5.8819,5.8837,5.8908,5.894,5.8992,5.9012,5.9013,5.9098,5.9086,5.9068,5.9034,5.9105,5.9138,5.9151,5.8984,5.8983,5.8982,5.8982,0,0,5.8607,5.8674,5.869,5.8718,5.8769,5.8811,5.887,5.8924,5.8955,5.8993,5.9044,5.9113,5.9098,5.9127,5.9131,5.9171,5.9247,5.9149,5.915,5.9168,5.9345,5.9361,5.9376,5.9241,5.9244,5.9246,5.9343,0,5.8695,5.8803,5.8815,5.891,5.8963,5.8958,5.9009,5.9045,5.9063,5.9108,5.9126,5.9177,5.9152,5.917,5.9209,5.923,5.9283,5.9222,5.9288,5.9291,5.9282,5.9392,5.9408,5.9499,5.9355,5.9358,5.9359,0,5.8812,5.8859,5.8961,5.9007,5.9029,5.9076,5.9128,5.9171,5.9212,5.9222,5.9256,5.9256,5.9316,5.9278,5.9361,5.932,5.9347,5.9361,5.9365,5.9374,5.9331,5.9406,5.9527,5.9542,5.9379,5.9377,5.9376,0,5.8877,5.8964,5.9037,5.9061,5.9115,5.9149,5.9173,5.9212,5.9244,5.9288,5.931,5.9359,5.9387,5.9425,5.9438,5.9408,5.9522,5.9484,5.9532,5.9532,5.9558,5.9557,5.9688,5.9571,5.9571,5.9571,5.9571,0,5.8975,5.9038,5.9067,5.9112,5.9183,5.9196,5.9264,5.9286,5.9321,5.937,5.9366,5.9411,5.9425,5.9472,5.9482,5.9551,5.9562,5.9573,5.9575,5.9575,5.9574,5.9595,5.959,5.9574,5.9574,5.9573,5.9572,0,5.9059,5.9081,5.9161,5.9208,5.9221,5.9271,5.931,5.9353,5.937,5.9432,5.9447,5.9474,5.953,5.9546,5.9612,5.9619,5.9701,5.9696,5.9689,5.969,5.9739,5.9735,5.989,5.9912,5.9778,5.9779,5.978,0,5.9122,5.9171,5.9224,5.9258,5.9285,5.9338,5.9372,5.9387,5.9422,5.9474,5.9511,5.9567,5.9613,5.9702,5.9726,5.9777,5.9775,5.9826,5.9783,5.9782,5.978,5.9778,5.9784,5.9835,5.9836,5.9837,5.9838,0,5.9232,5.9242,5.9293,5.9348,5.939,5.9434,5.9476,5.9503,5.9523,5.9563,5.9622,5.9658,5.9727,5.9783,5.9835,5.9858,5.9853,5.9852,5.9866,5.9868,5.9863,5.9869,5.9714,5.9848,5.9847,5.9847,5.9846,5.9846,5.931,5.9354,5.94,5.9457,5.9491,5.9531,5.9575,5.9599,5.9649,5.9709,5.9713,5.9778,5.9818,5.9888,5.9914,5.9964,5.9949,5.9969,5.9975,5.998,5.9986,5.9853,5.9973,5.9972,5.9972,5.9972,5.9972,0,5.9422,5.9452,5.9505,5.9566,5.9611,5.9603,5.965,5.9688,5.9745,5.9785,5.9831,5.9899,5.9954,5.9984,6.0038,6.0072,6.0071,6.0086,6.0085,6.0091,5.9995,5.9978,6.0087,6.0087,6.0087,6.0087,6.0087,6.0087,5.9487,5.9563,5.9578,5.967,5.9698,5.9764,5.9792,5.9828,5.986,5.9938,5.9985,6.0005,6.004,6.0098,6.0148,6.0155,6.0176,6.0194,6.0199,6.0109,6.0097,6.0086,6.0071,6.0197,6.0198,6.0292,6.0293,6.0294]}]]